Flag for Greenland Weather past 2 weeks in Nuuk, Greenland

Now
59 °F

Passing clouds.


Feels Like: 58 °F
Forecast: N/A
Wind: 6 mph from South

Location: Godthaab / Nuuk

Current Time: Jul 30, 2014 at 9:01:48 PM

Latest Report: Jul 30, 2014 at 7:50 PM


Visibility: N/A

Pressure: 29.95 "Hg

Humidity: 55%

Dew point: 43 °F

Location of NuukLocation

Historic Weather in Nuuk — Graph

°F

Nuuk temperature yesterday

Maximum temperature yesterday: 64 °F (at 5:50 PM)
Minimum temperature yesterday: 48 °F (at 5:50 AM)
Average temperature yesterday: 57 °F

Past Weeks' High & Low Weather Summary

 TemperatureHumidityPressure
High64 °F (Jul 29, 5:50 PM)100% (Jul 15, 8:50 PM)30.12 "Hg (Jul 15, 8:50 PM)
Low37 °F (Jul 15, 8:50 PM)39% (Jul 20, 8:50 PM)29.65 "Hg (Jul 15, 7:50 PM)
Average51 °F73%29.87 "Hg
* Reported Jul 15 7:50 PM — Jul 30 7:50 PM, Nuuk, Weather by CustomWeather, © 2014

Note: Actual official high and low records may vary slightly from our data, if they occured in-between our weather recording intervals... More about our weather records

Advertising

Nuuk weather history for previous 24 hours

 ConditionsComfort  
Time TempWeatherWind HumidityBarometerVisibility
7:50 PM
Jul 30
59 °FPassing clouds.6 mph55%29.95 "HgN/A
6:50 PM57 °FPassing clouds.9 mph63%29.95 "HgN/A
5:50 PM57 °FPassing clouds.10 mph63%29.98 "HgN/A
4:50 PM59 °FPassing clouds.9 mph59%29.98 "HgN/A
3:50 PM61 °FPassing clouds.8 mph55%29.98 "HgN/A
2:50 PM59 °FPassing clouds.9 mph59%29.98 "HgN/A
1:50 PM57 °FPassing clouds.9 mph63%30.01 "HgN/A
12:50 PM57 °FPassing clouds.7 mph63%30.01 "HgN/A
11:50 AM59 °FPassing clouds.6 mph59%30.04 "HgN/A
10:50 AM59 °FPassing clouds.3 mph59%30.04 "HgN/A
9:50 AM59 °FPassing clouds.7 mph59%30.04 "HgN/A
8:50 AM57 °FPassing clouds.2 mph63%30.04 "HgN/A
7:50 AM55 °FPassing clouds.2 mph67%30.07 "HgN/A
6:50 AM54 °FPassing clouds.6 mph72%30.04 "HgN/A
5:50 AM52 °FPassing clouds.5 mph77%30.07 "HgN/A
4:50 AM50 °FCool.3 mph82%30.07 "HgN/A
3:50 AM50 °FCool.5 mph82%30.09 "HgN/A
2:50 AM52 °FCool.No wind77%30.09 "HgN/A
1:50 AM54 °FCool.8 mph72%30.09 "HgN/A
12:50 AM55 °FCool.6 mph67%30.09 "HgN/A
11:50 PM
Jul 29
57 °FRefreshingly cool.5 mph59%30.12 "HgN/A
10:50 PM55 °FCool.8 mph67%30.12 "HgN/A
9:50 PM57 °FCool.9 mph63%30.12 "HgN/A
Weather by CustomWeather, © 2014

See weather overviewHow to use our weather pages